Temp
10 11 11 12 12 11 10 11 13 12 12 13 13 13 12 12 12 11 12 11 9 11 12 10 10 10 10 10 10 11 11 10 10 9 9 9 9 9 9 9 9 9 10 9 9 10 11 12 13 14 14 14 14 14 13 13 14 14 13 11 11 11 11 11 12 12 15 15 13 13 13 13 14 15 15 15 15 15 15 15 14 14 14 14 14 14
9 10 11 11 12 11 11 10 10 11 11 12 12 12 12 11 11 11 10 10 9 10 11 10 10 10 10 10 11 11 11 10 10 10 10 11 10 10 10 10 10 10 9 9 9 9 10 11 12 13 13 14 13 13 13 13 14 14 13 12 11 11 11 11 11 12 14 14 13 13 13 14 13 14 15 15 15 15 15 15 15 14 14 14 14 14
9 9 10 11 10 10 10 9 10 10 11 11 11 11 12 10 11 11 9 8 9 10 10 10 9 9 10 10 11 11 10 10 10 10 11 12 12 12 11 11 11 11 10 10 10 9 8 10 12 12 12 13 13 13 13 13 13 14 13 12 11 11 11 11 11 12 13 13 13 13 13 14 13 13 14 15 15 15 15 15 14 14 14 14 14 14
10 10 10 10 10 10 10 9 9 10 10 11 10 11 12 10 11 13 10 8 9 9 9 9 8 9 11 11 12 11 8 9 9 9 9 9 10 12 12 11 11 11 11 11 11 10 8 8 10 11 12 12 12 12 12 12 13 13 13 12 11 11 11 11 11 11 12 13 14 13 13 14 14 13 13 14 15 15 15 15 14 14 14 14 14 14
11 11 9 9 10 11 11 9 9 10 10 10 10 11 12 11 11 12 10 9 9 8 7 9 11 12 13 14 16 13 8 10 11 10 11 10 9 9 9 10 10 10 10 11 11 11 10 9 9 11 11 11 11 12 13 12 12 13 13 12 12 11 11 11 11 11 12 13 14 14 14 14 14 14 13 13 14 14 14 14 14 14 14 14 14 14
10 10 9 9 9 10 11 10 10 10 10 10 10 11 11 12 11 10 9 10 11 10 8 9 13 15 15 14 16 14 11 12 11 10 13 13 11 10 11 12 12 11 11 10 10 11 11 9 7 9 10 9 10 11 12 12 12 12 12 12 12 11 11 11 11 11 12 13 13 14 14 14 14 14 13 13 13 13 14 14 13 13 13 13 13 13
9 10 10 10 9 10 10 10 10 10 11 11 11 10 9 10 10 9 9 10 11 11 9 8 11 12 12 14 14 11 10 12 12 13 14 13 13 12 13 14 14 14 13 12 11 10 10 9 8 9 10 9 10 12 12 12 11 11 12 12 12 11 11 11 11 11 11 12 13 13 13 14 15 15 14 13 13 13 13 13 13 13 13 13 13 13
9 10 10 10 10 9 9 10 9 9 11 11 9 8 8 9 9 9 9 10 9 9 8 7 9 10 10 12 12 9 11 14 15 17 17 15 15 15 14 14 14 15 14 13 13 13 12 11 8 9 11 11 11 12 12 12 12 12 11 12 12 11 11 11 11 11 11 12 13 13 12 13 14 15 16 15 14 14 13 12 12 13 13 12 13 13
9 10 10 10 10 9 9 11 9 10 12 10 7 7 8 9 9 8 8 9 7 7 9 8 8 10 11 13 12 9 12 16 17 18 18 17 17 16 15 14 14 14 13 12 12 13 14 10 7 10 12 13 13 12 12 13 12 12 11 11 11 11 11 11 11 11 11 11 12 12 12 12 12 14 15 16 15 15 14 13 12 12 12 12 12 12
8 8 8 9 10 9 10 10 9 11 11 8 7 7 8 7 7 7 7 8 7 8 10 10 9 11 13 15 14 13 14 16 18 18 17 16 16 16 15 14 13 13 13 12 11 13 12 8 8 11 12 12 13 13 13 13 12 11 10 10 11 11 11 11 11 11 11 11 11 12 12 12 13 12 13 14 15 15 16 15 13 12 12 11 11 11
6 6 7 8 9 9 9 8 7 9 9 8 8 8 8 7 6 6 6 7 9 10 10 8 8 11 13 15 16 15 15 17 18 18 16 15 16 15 15 15 14 13 14 15 14 13 11 7 9 11 11 12 13 12 12 12 12 11 10 9 10 10 11 11 11 11 11 11 11 12 12 12 13 13 12 11 12 14 15 15 14 14 14 14 13 12
6 7 7 8 8 8 9 8 6 7 7 8 9 9 9 9 7 7 7 7 10 12 10 5 4 8 11 15 17 15 14 14 15 17 17 16 16 16 16 16 15 14 15 15 14 15 13 11 11 11 11 13 12 11 11 11 12 11 10 9 9 9 10 10 10 11 11 11 11 11 12 12 12 13 13 12 11 11 12 12 12 13 13 13 14 14
7 7 7 7 7 8 9 8 6 6 7 8 9 9 10 10 10 10 9 9 10 11 8 4 6 8 9 13 15 13 14 14 12 14 16 16 16 16 16 16 16 14 14 15 14 15 14 13 13 10 9 11 11 11 11 10 11 11 10 9 9 9 9 9 10 10 11 11 11 11 11 11 11 12 13 13 12 11 10 11 10 10 11 11 11 12
8 7 7 8 8 8 9 9 7 7 7 8 9 10 11 11 11 12 11 10 11 10 6 5 7 9 10 14 14 12 14 14 12 12 13 14 15 16 16 16 16 14 14 14 14 14 14 14 13 9 7 10 11 11 10 10 10 11 11 10 9 9 9 9 9 9 10 10 11 11 11 11 11 11 12 13 13 12 11 10 10 10 10 10 10 10
9 9 8 8 8 8 9 9 9 8 7 8 9 9 10 11 12 14 13 12 13 10 6 6 9 12 15 16 13 11 12 12 12 12 11 11 12 13 14 14 14 14 14 14 14 14 14 14 11 7 7 9 11 11 11 10 10 10 11 11 10 9 8 8 9 9 9 10 10 11 11 11 11 11 11 12 13 13 12 11 11 11 10 10 10 10
9 10 8 7 7 8 8 9 9 8 8 7 7 8 10 11 12 12 10 10 10 9 8 7 9 11 14 15 12 12 13 12 12 12 12 12 12 11 13 13 14 14 13 14 14 14 14 12 8 5 7 9 10 11 10 10 10 10 10 10 11 10 9 8 8 9 9 9 9 10 10 10 11 11 11 11 12 12 12 12 11 11 11 11 10 10
9 9 5 5 7 7 8 8 9 9 9 7 7 8 8 8 10 11 9 7 7 10 10 9 10 11 13 15 15 14 14 13 12 12 13 14 13 12 13 14 13 13 13 14 13 13 14 12 7 5 7 9 10 11 11 11 11 10 10 10 10 10 10 8 8 8 8 8 9 9 9 9 9 10 10 11 11 11 12 12 11 11 11 11 11 10
11 9 4 5 7 6 5 7 8 8 8 7 7 8 8 8 9 11 11 9 8 10 11 10 11 13 14 16 16 15 15 15 13 12 12 13 13 13 14 13 12 13 13 13 12 12 11 11 8 6 7 10 11 12 13 13 12 11 10 10 10 10 11 11 9 8 8 8 8 8 8 9 8 9 9 10 10 11 11 11 11 11 11 11 11 11
12 11 6 4 5 6 5 7 8 7 7 7 8 8 9 10 10 9 11 11 10 11 12 10 9 11 14 16 17 17 18 17 15 12 12 13 13 13 13 12 12 12 12 12 12 11 11 12 9 6 8 11 12 12 13 14 12 11 10 10 10 10 11 12 11 10 9 8 9 9 9 8 8 8 8 8 9 9 10 10 11 11 11 10 10 10
12 12 9 4 4 6 6 6 7 7 6 6 7 7 8 9 10 9 10 11 11 12 12 12 11 11 13 14 17 18 18 18 16 13 13 13 13 12 12 12 12 12 13 13 13 12 13 13 9 6 8 11 13 14 13 13 12 11 11 10 9 10 10 10 10 11 10 10 9 9 8 8 8 8 8 8 8 8 9 9 10 10 11 10 10 10
11 12 10 5 4 5 6 6 7 7 7 6 7 7 7 8 9 9 9 9 11 12 12 12 13 14 13 13 15 18 17 17 16 15 14 12 12 12 11 12 13 13 13 13 13 13 14 13 8 6 9 11 12 12 12 12 13 12 12 10 9 9 9 9 9 10 10 10 10 9 8 8 8 8 8 7 7 7 8 8 8 9 9 10 10 10
11 11 9 5 3 5 6 7 7 8 8 7 7 7 8 8 9 10 10 8 8 10 11 11 12 14 14 13 14 17 17 15 15 15 15 12 12 12 11 12 13 13 13 13 13 12 13 14 10 7 8 9 9 10 12 13 13 13 13 12 11 10 9 9 9 9 10 10 10 10 9 9 8 8 8 7 6 6 7 7 8 8 8 8 8 9
10 9 8 5 4 6 6 7 7 8 8 8 7 8 8 9 9 11 12 10 8 9 9 9 10 13 15 14 15 16 16 15 13 13 14 13 12 11 11 11 11 12 13 12 11 11 12 12 8 6 7 8 8 10 11 12 12 12 13 13 12 11 10 10 9 8 9 8 9 9 10 9 9 8 7 7 6 6 6 6 7 7 7 7 8 8
10 9 9 7 6 6 7 7 6 7 7 7 7 7 7 8 9 11 10 9 9 9 9 9 10 12 14 14 15 15 14 14 13 13 14 15 12 11 12 12 11 12 12 11 10 10 11 9 7 8 8 6 7 9 10 12 12 12 13 12 12 12 12 11 10 8 8 7 8 8 8 8 9 8 8 7 7 7 6 6 6 6 7 7 7 7
10 10 9 8 7 7 7 7 6 6 6 6 7 7 7 8 9 9 8 8 9 10 10 11 11 13 14 13 13 14 13 14 14 12 13 14 13 12 12 12 12 13 13 12 12 12 12 11 11 12 9 5 6 9 10 11 11 11 12 12 12 12 12 12 11 9 8 7 7 7 6 7 7 7 8 8 8 8 7 7 6 6 6 6 7 7
10 10 10 9 9 9 8 8 8 7 5 6 7 7 7 7 8 9 9 8 9 9 10 11 12 13 14 14 13 14 14 15 15 12 11 12 12 12 12 13 14 15 14 14 13 13 13 13 13 13 9 4 6 8 9 11 11 11 11 11 11 11 11 11 10 9 8 7 7 6 6 6 6 6 7 7 7 7 7 7 6 5 5 6 6 6
10 10 10 10 11 11 11 11 10 8 7 7 7 7 7 7 7 8 9 8 9 9 9 11 12 13 13 14 14 14 14 15 15 13 12 13 12 12 13 14 14 14 14 14 14 13 13 13 13 13 10 5 5 8 9 10 11 10 10 11 11 11 10 9 9 8 8 7 7 7 6 6 6 6 6 6 7 7 7 6 6 5 5 5 5 6
10 10 10 10 11 12 13 12 10 9 9 8 8 8 7 7 7 7 8 9 10 9 9 11 12 12 12 13 14 14 14 14 14 14 14 14 13 13 13 13 13 13 13 13 13 13 13 13 12 12 10 5 4 7 8 9 10 10 10 10 10 10 9 8 8 7 7 7 7 7 7 7 6 6 6 6 6 6 6 6 5 5 5 5 5 5
10 10 10 10 10 11 12 11 9 10 10 9 9 8 7 7 7 7 8 9 10 10 11 12 12 12 12 13 14 14 14 14 13 13 14 13 13 13 12 12 12 13 13 12 12 12 11 12 11 11 11 7 3 5 7 8 9 9 9 9 9 9 8 8 7 7 7 6 6 6 6 6 6 6 6 5 5 5 5 5 5 5 5 5 5 5
9 10 10 10 9 10 11 10 9 9 10 9 9 8 8 8 7 7 8 9 9 10 11 11 11 12 12 13 13 14 15 14 14 14 14 13 13 13 13 12 12 12 12 12 12 12 11 12 11 10 11 8 3 3 5 6 8 9 9 9 9 8 8 7 7 6 6 5 5 5 5 5 6 6 6 5 5 5 5 5 5 4 5 4 4 4
9 9 9 10 9 9 10 9 8 8 9 9 9 8 8 8 8 8 8 8 8 9 10 10 10 11 12 13 13 13 14 14 13 13 14 13 13 12 12 12 12 12 11 11 12 12 12 12 10 9 10 9 5 3 5 7 9 9 9 8 8 7 7 6 6 5 5 5 5 4 4 5 5 5 5 5 5 5 5 5 4 4 4 4 4 4
8 8 8 9 8 9 10 9 8 7 8 8 8 8 8 8 8 8 8 8 9 9 9 9 9 10 12 12 12 12 12 12 12 12 13 13 13 12 11 12 11 11 11 11 11 11 11 11 10 9 10 9 4 4 6 8 8 8 8 8 7 7 6 5 5 5 4 4 4 4 4 4 4 5 5 5 4 4 4 4 4 4 4 4 4 4
8 7 7 8 8 9 10 9 8 7 7 7 8 9 9 8 8 9 9 8 9 9 9 9 9 11 12 12 12 11 11 11 11 11 12 12 12 12 11 11 11 11 11 11 11 11 11 11 9 9 9 7 5 7 9 9 8 8 8 8 7 6 5 4 4 4 3 3 3 3 3 3 4 4 4 4 4 4 4 4 3 3 4 4 4 4
7 7 7 7 8 8 9 8 7 7 7 8 10 11 11 10 9 9 9 9 9 9 10 10 11 12 12 12 11 11 11 11 11 11 12 12 12 12 12 11 11 11 11 11 11 11 10 10 9 7 5 6 8 10 11 10 9 8 8 7 6 5 4 4 3 3 3 2 2 2 2 3 3 3 4 4 4 4 3 3 3 3 3 3 3 3
7 7 7 7 7 8 7 7 6 6 8 10 11 11 12 11 10 9 9 10 9 9 9 10 10 11 11 11 11 11 11 12 11 11 11 11 11 12 12 11 10 10 11 10 10 10 10 9 9 6 4 6 10 11 10 9 8 7 7 6 5 4 4 3 3 2 2 2 1 1 2 2 2 3 3 3 3 3 3 3 3 3 3 3 3 3
7 7 7 7 7 7 7 6 7 8 10 10 10 10 11 11 10 9 9 10 10 10 9 9 10 10 11 11 11 12 12 11 11 11 10 11 11 11 11 11 10 11 11 10 10 10 10 8 7 6 6 8 10 10 9 8 7 6 6 5 4 4 3 3 2 2 2 1 1 1 1 2 2 2 2 2 2 2 2 2 2 3 3 2 2 2
7 7 7 7 7 7 7 6 8 9 10 10 10 10 10 10 10 9 9 10 11 10 10 10 10 10 11 11 11 11 11 11 10 10 10 10 10 10 10 11 11 11 10 10 9 10 9 7 6 7 8 9 9 9 9 8 7 6 4 4 3 3 2 2 1 1 1 1 1 1 1 1 2 2 2 2 2 2 2 2 2 2 2 2 2 1
8 7 7 7 7 7 7 7 7 7 7 9 11 11 10 10 11 10 9 11 11 11 10 10 10 11 11 11 11 11 10 10 9 10 11 11 10 10 10 10 11 11 10 10 9 8 7 7 7 8 9 8 8 9 9 7 6 5 3 3 2 2 1 1 1 1 1 1 1 1 1 1 1 1 2 2 2 2 2 2 2 2 2 2 2 1
7 7 7 7 7 7 7 6 7 7 8 10 11 11 10 10 11 10 9 9 11 12 12 10 11 11 11 10 10 10 9 9 9 10 11 11 11 11 10 10 10 10 10 9 8 7 7 7 7 7 7 6 7 8 7 6 6 4 2 2 1 1 0 0 1 1 1 1 1 1 1 1 1 1 1 1 1 2 2 2 2 1 1 1 1 1
6 6 6 6 6 7 7 6 7 8 9 11 12 11 9 9 10 10 8 9 12 13 12 11 11 11 11 11 10 9 9 9 10 11 12 12 12 11 10 10 10 10 9 7 7 7 7 7 5 4 4 5 8 8 6 6 5 3 2 1 1 -0 0 1 1 2 1 1 1 0 0 0 0 1 1 1 1 1 1 1 1 1 1 1 1 1
5 5 6 6 6 7 7 7 7 8 9 10 11 9 8 9 10 9 10 12 12 11 10 11 11 11 10 10 9 9 9 10 11 12 11 11 11 11 10 9 8 7 7 6 6 6 6 5 5 5 6 7 8 7 6 5 3 2 2 1 -0 0 2 3 2 2 1 1 1 0 0 0 0 0 0 1 1 1 1 1 1 1 1 0 0 0
5 5 5 6 6 7 7 7 7 8 10 11 9 7 8 9 9 9 11 13 13 12 10 10 11 11 10 9 9 9 10 10 10 11 10 10 11 11 10 9 7 6 5 4 4 5 4 3 4 5 6 6 6 6 7 5 2 1 1 -0 0 3 4 3 2 2 1 1 0 0 0 -0 -0 0 0 0 0 0 0 0 0 0 0 0 -0 -1
6 6 6 6 7 7 7 7 7 8 10 11 8 7 8 10 11 12 13 13 13 13 12 10 11 11 10 8 9 9 9 9 9 9 9 9 9 10 10 8 7 6 6 5 4 4 3 3 3 4 5 5 5 6 6 4 2 1 0 0 3 5 4 2 2 2 1 0 0 -0 -0 -0 -0 -0 -0 0 0 0 -0 -0 -0 -0 -0 -0 -1 -1
7 7 6 7 7 7 6 7 8 9 10 10 10 10 10 10 12 13 14 14 13 13 13 12 12 10 8 9 9 8 8 9 8 8 9 9 9 10 9 7 6 6 6 6 5 4 3 3 3 3 4 4 4 5 5 3 2 1 -0 2 5 4 2 2 2 1 0 0 -0 -0 -0 -0 -0 -0 -0 -0 -0 -0 -0 -1 -1 -1 -1 -1 -1 -2
8 9 9 8 8 8 8 9 10 10 9 9 11 13 12 11 11 12 13 15 15 13 11 12 13 10 7 8 9 8 8 9 8 8 9 9 10 9 8 7 6 5 6 6 4 3 3 4 3 3 3 3 4 4 4 4 2 1 1 3 5 3 2 2 1 0 0 -0 -1 -1 -0 -1 -1 -1 -1 -0 -0 -0 -1 -1 -1 -1 -1 -2 -2 -2
9 10 10 9 9 9 9 9 9 9 8 9 10 12 12 11 11 11 11 14 14 12 10 11 13 11 7 6 8 10 10 10 9 8 8 9 10 9 8 8 7 6 6 5 4 2 2 3 4 3 2 2 3 2 3 3 3 2 3 5 4 2 2 2 0 -0 -0 -0 -1 -1 -1 -1 -1 -1 -1 -1 -1 -0 -1 -1 -2 -2 -2 -2 -2 -2
9 9 9 9 9 9 8 9 9 9 8 8 9 10 10 10 10 10 11 12 12 11 9 10 11 10 7 7 9 12 12 10 9 9 8 8 9 9 9 10 10 8 6 5 5 3 1 2 5 5 2 1 2 2 2 3 3 4 5 4 3 2 2 1 0 -0 -1 -1 -1 -1 -1 -1 -1 -1 -1 -1 -1 -1 -1 -1 -2 -2 -2 -2 -2 -2
7 8 8 8 9 9 9 9 10 9 8 8 8 9 9 9 9 9 9 10 10 10 9 9 9 8 7 8 9 12 12 10 10 11 10 9 9 9 9 11 11 9 6 3 3 3 1 2 6 6 3 1 3 3 3 3 4 4 4 3 2 2 2 1 0 -0 -1 -1 -1 -1 -1 -1 -1 -1 -1 -1 -1 -1 -1 -1 -1 -2 -2 -2 -2 -2
5 6 7 8 8 8 9 10 9 9 8 8 8 8 8 8 9 9 8 8 9 9 8 8 8 8 9 9 10 11 11 11 11 12 12 11 10 10 10 10 10 10 8 4 3 3 3 2 2 2 1 2 4 4 3 4 5 5 4 2 2 2 1 1 0 -0 -1 -1 -1 -1 -1 -1 -1 -1 -2 -2 -2 -2 -2 -1 -1 -2 -2 -2 -2 -2
4 4 6 7 7 7 8 9 9 9 9 9 9 8 8 7 8 8 8 8 8 8 8 8 8 7 7 8 9 9 10 10 11 11 11 12 12 12 12 11 9 9 6 3 2 3 2 2 2 2 1 3 4 4 4 5 5 4 3 2 2 2 1 1 -0 -1 -1 -1 -2 -2 -2 -2 -2 -1 -2 -2 -2 -2 -2 -1 -1 -2 -1 -2 -2 -2
4 4 5 6 6 8 9 10 10 9 9 10 10 9 9 8 7 8 8 8 8 8 8 8 8 8 7 6 6 7 8 9 9 9 9 10 10 11 11 9 8 8 6 3 3 2 1 1 2 1 2 4 5 4 5 5 4 4 4 3 2 2 1 1 -1 -2 -2 -2 -2 -2 -2 -2 -2 -2 -2 -2 -2 -2 -2 -2 -2 -2 -2 -1 -2 -2
Height
806 805 803 797 793 797 803 800 796 799 800 798 799 801 802 802 801 802 802 804 810 802 794 796 797 788 774 768 766 757 757 760 756 755 753 750 748 745 743 740 737 736 731 727 727 726 725 725 723 724 725 726 727 728 728 729 729 728 729 730 731 732 733 732 733 732 729 732 738 745 748 747 745 735 728 734 740 744 750 756 761 765 769 773 776 780
807 804 796 791 792 796 800 803 803 804 803 800 801 802 804 808 803 802 806 807 809 806 796 796 797 785 771 766 762 757 756 754 750 750 746 742 742 741 739 737 734 732 729 727 726 725 723 722 721 722 723 724 725 725 726 726 727 727 727 728 730 732 732 731 732 733 731 732 737 743 744 742 742 738 730 731 737 741 747 754 759 764 767 771 774 777
810 803 793 793 799 800 801 805 805 804 804 803 806 806 803 808 805 801 811 813 809 807 797 795 798 780 763 762 756 751 752 748 746 746 741 737 736 735 734 732 731 729 727 726 724 723 722 720 719 720 720 721 723 723 724 724 725 725 725 726 728 729 729 730 732 733 732 731 734 738 741 738 739 740 734 731 736 741 746 752 758 762 766 768 771 774
803 795 792 795 799 799 801 806 806 806 806 804 807 806 800 805 803 793 802 812 808 808 803 799 798 778 757 752 744 745 752 747 744 745 742 741 737 732 732 731 730 729 725 724 723 722 721 719 718 718 718 720 721 722 722 723 723 723 723 723 726 727 727 730 731 731 730 730 731 734 737 735 736 740 736 730 734 741 746 751 756 760 763 766 769 772
788 786 791 796 796 794 797 804 805 803 805 806 807 803 797 800 802 798 804 810 805 808 812 802 784 760 746 742 732 739 751 744 739 741 735 736 737 733 732 730 728 728 725 723 721 720 720 718 717 716 717 719 720 721 720 721 722 722 722 722 723 725 726 728 728 728 728 728 729 730 733 733 733 739 737 730 734 741 746 751 755 757 761 765 767 770
789 788 791 794 797 795 795 800 801 799 801 804 801 798 796 796 801 807 810 807 799 798 808 804 779 750 740 740 732 735 743 737 737 738 729 726 730 731 729 725 723 723 723 723 720 719 719 718 716 715 716 718 718 719 719 720 722 722 721 721 721 724 725 725 725 726 726 727 728 729 731 731 730 736 739 735 737 742 746 751 754 757 760 763 766 769
790 789 788 789 794 795 795 797 798 798 800 799 796 798 803 803 806 810 809 805 798 794 803 811 796 772 754 739 733 743 745 735 732 730 724 725 724 724 723 720 720 719 718 719 719 719 719 717 716 714 714 716 717 718 719 720 721 721 721 719 720 721 723 723 722 723 724 725 728 729 731 730 728 733 739 740 741 744 749 752 755 758 760 762 764 768
785 787 788 789 791 795 796 793 795 798 795 796 800 805 806 807 808 810 810 808 807 807 808 813 810 797 774 743 737 753 744 725 722 717 715 718 717 717 718 717 717 717 716 717 716 716 717 716 715 713 713 715 716 718 719 719 720 720 720 718 718 719 720 721 721 722 722 724 727 729 730 730 728 730 735 740 743 746 751 756 758 759 761 763 764 767
785 784 785 786 789 794 791 787 792 794 790 797 807 809 806 807 809 812 814 812 819 819 803 803 810 795 768 740 739 751 736 718 715 710 708 711 711 712 714 715 716 715 716 717 716 714 714 715 713 712 712 713 715 717 718 718 718 719 719 718 716 717 718 719 719 721 722 724 726 727 728 730 730 730 732 737 743 747 752 757 760 760 760 762 764 766
789 789 787 785 785 787 787 789 793 788 788 801 810 809 810 814 816 818 818 815 822 815 788 787 798 780 750 728 728 735 726 715 710 707 711 711 710 712 712 713 714 714 714 714 715 714 713 713 712 711 711 712 714 716 717 717 717 717 718 717 716 715 716 717 718 720 722 723 725 726 727 729 730 731 732 734 738 744 750 754 759 761 762 763 765 767
793 795 792 787 784 785 788 795 799 792 793 803 806 806 811 818 822 824 825 822 812 792 780 794 800 783 755 724 715 719 714 708 704 704 711 711 709 710 709 710 711 711 711 711 712 713 712 711 710 710 709 710 712 714 716 716 716 716 716 717 716 715 716 716 718 719 721 723 724 725 727 728 730 732 734 735 736 739 744 748 753 757 760 762 765 768
794 793 791 788 787 787 788 795 802 801 801 801 798 801 803 808 817 820 823 822 798 770 782 816 816 798 768 724 706 714 713 712 709 703 704 706 707 707 706 707 708 709 709 710 710 710 710 710 709 709 708 709 711 712 714 715 716 716 715 716 717 716 716 717 718 719 720 722 723 725 726 728 730 731 733 735 736 738 740 743 747 750 754 756 757 760
789 789 790 788 787 786 784 792 805 806 804 800 798 800 797 797 799 796 801 807 791 775 795 818 809 794 771 730 713 715 710 711 714 709 704 705 706 705 706 705 705 708 708 708 709 708 709 709 708 709 708 708 710 711 714 715 716 716 715 716 717 717 717 717 718 719 720 721 723 725 727 728 730 731 732 733 735 737 739 741 744 746 750 751 751 751
786 788 791 786 783 781 777 784 796 801 802 798 794 792 789 794 789 776 784 792 780 781 805 815 799 780 756 724 713 712 703 703 711 711 708 706 706 703 703 704 704 707 708 707 708 708 708 708 707 708 707 708 709 710 713 714 716 717 716 716 716 717 718 717 718 720 721 722 723 725 727 728 730 730 731 732 733 736 738 740 743 744 746 748 748 748
775 770 775 777 773 773 773 774 777 786 796 794 791 789 781 779 772 760 765 766 761 778 805 810 783 750 722 705 707 710 705 706 707 708 710 709 708 706 705 706 705 706 707 707 707 707 707 707 707 708 707 707 708 709 711 713 714 717 717 718 717 717 719 719 720 721 722 724 725 726 728 728 729 730 730 731 732 734 736 738 741 742 743 745 746 748
769 755 763 773 769 768 770 771 774 780 790 794 795 794 784 773 766 767 777 779 779 785 793 794 769 738 717 703 705 707 703 705 705 704 708 706 706 708 706 705 705 705 706 706 706 706 705 706 706 706 706 705 706 707 708 710 712 714 716 718 718 718 720 720 721 722 722 725 726 727 728 728 729 729 729 730 731 733 734 736 738 740 741 743 746 748
765 762 775 779 772 773 771 770 773 770 775 790 795 787 783 781 773 772 787 800 799 777 762 765 751 732 722 703 694 698 696 699 703 702 703 700 701 704 702 702 704 704 704 704 705 704 703 705 705 705 705 704 704 705 706 707 708 710 713 715 717 719 720 721 722 723 723 724 726 727 727 728 728 728 728 729 730 732 734 735 737 739 741 742 745 747
744 759 780 781 772 778 778 772 774 772 771 783 787 779 780 786 782 773 773 784 792 773 752 751 739 722 718 701 689 693 690 690 696 699 701 700 700 700 698 701 703 702 703 703 703 704 703 705 704 703 703 702 702 703 703 704 706 708 709 711 714 716 717 718 719 721 722 723 723 724 725 726 726 726 727 728 729 731 732 735 736 738 740 741 744 746
731 742 771 786 778 777 780 773 773 778 777 777 776 775 774 772 775 778 770 763 769 764 745 745 748 733 715 697 685 683 682 682 689 697 700 698 698 698 697 701 702 702 703 702 702 703 702 703 702 701 701 700 700 700 701 703 704 705 707 708 710 711 713 715 716 717 718 719 720 721 721 722 723 724 725 726 728 729 731 733 734 736 738 740 742 744
732 731 755 785 783 776 780 776 772 775 778 780 778 778 777 770 765 768 767 757 752 749 738 734 736 723 706 694 683 677 678 680 685 693 695 694 694 695 697 699 700 700 700 699 699 700 700 700 699 699 698 697 698 698 699 700 701 703 704 705 707 709 710 711 712 713 714 715 716 717 718 719 720 721 722 724 725 727 729 731 732 734 735 737 740 741
735 727 743 779 788 780 776 766 761 761 766 773 775 775 776 774 769 764 763 763 753 744 742 733 714 696 693 693 681 674 677 680 682 684 688 691 692 694 696 696 695 697 696 696 697 697 697 697 697 696 696 695 696 696 697 698 699 700 701 703 704 706 707 709 710 711 712 713 714 715 716 717 718 719 721 722 724 726 727 728 730 732 734 735 737 739
734 731 746 779 786 774 766 756 753 754 752 757 761 762 760 759 762 756 752 764 766 750 742 738 714 685 683 689 682 676 677 679 683 682 683 689 690 692 695 694 693 693 693 693 694 694 695 695 695 694 694 694 694 694 695 696 697 698 698 700 701 703 705 706 707 708 709 711 712 713 714 715 717 718 720 722 723 725 726 727 729 731 733 734 736 738
730 737 750 771 772 764 760 756 756 755 752 756 757 755 756 754 749 738 733 748 763 756 750 754 735 694 675 680 677 674 675 678 683 684 682 685 688 691 692 692 693 692 691 692 692 693 694 693 693 693 692 693 693 692 693 693 694 695 695 697 698 699 701 703 705 706 707 709 710 711 713 714 716 717 719 720 721 723 725 727 729 730 732 733 735 736
731 737 742 755 761 758 756 755 757 757 755 757 756 756 759 752 742 736 738 745 749 744 746 753 734 693 674 678 675 674 678 679 682 683 680 680 686 689 688 688 692 691 690 691 691 692 693 692 693 693 692 691 690 690 691 690 691 692 692 694 694 695 697 699 701 703 705 707 708 709 711 712 714 715 716 717 718 720 722 724 727 729 730 732 733 734
724 729 734 745 752 753 756 757 757 758 758 753 750 753 753 748 746 746 750 756 746 730 730 732 713 683 676 681 678 677 678 675 677 682 681 679 682 684 685 687 688 687 688 689 689 690 690 690 690 690 690 689 688 688 688 688 689 689 689 690 691 692 693 695 697 699 701 703 704 706 708 709 711 712 713 714 715 717 719 721 723 725 727 729 730 731
709 715 721 729 730 730 731 729 724 733 750 751 743 745 746 747 749 742 744 753 739 723 723 714 693 678 676 679 677 677 678 673 674 681 682 681 681 681 683 683 683 684 684 685 686 687 687 687 688 688 688 687 686 685 686 686 686 686 687 687 688 689 690 691 693 694 696 698 699 701 703 705 706 708 709 711 712 714 716 718 719 721 723 725 727 728
704 704 706 705 698 691 689 691 696 711 733 738 732 735 739 742 743 742 745 741 725 724 723 700 684 682 678 677 677 676 676 673 672 676 678 678 679 679 680 680 681 682 682 682 684 684 685 685 685 685 686 685 684 683 683 683 683 684 684 684 685 686 687 688 689 690 691 693 695 696 698 700 701 703 705 706 708 711 713 714 716 718 719 721 723 725
704 703 700 696 687 679 677 685 694 700 709 714 717 725 731 734 740 743 736 718 712 722 710 686 688 688 674 674 677 673 674 674 672 674 673 674 677 678 678 680 680 680 680 682 683 682 683 683 683 683 683 683 682 681 681 681 681 682 682 682 683 684 684 685 686 687 688 689 690 692 693 695 697 698 700 702 704 706 708 710 712 713 715 717 719 721
702 700 695 694 693 687 684 691 696 693 693 699 706 714 721 727 734 733 721 707 708 707 685 676 688 680 666 673 675 668 669 670 671 673 672 674 677 676 677 678 677 677 678 679 680 680 680 680 680 680 680 680 680 679 679 679 678 679 680 680 681 682 682 683 684 684 685 686 687 688 689 691 693 694 696 697 699 701 703 705 707 709 711 713 715 716
699 696 691 694 696 691 689 695 698 694 693 697 700 704 710 716 720 717 708 702 704 695 678 681 686 668 659 669 668 663 664 665 668 671 670 672 673 671 673 675 674 675 676 676 676 676 676 676 677 678 677 678 678 677 676 676 676 677 678 678 679 680 681 681 682 682 683 683 684 686 687 688 689 691 692 693 695 697 699 701 703 705 707 709 711 713
698 696 693 694 698 694 688 693 700 698 694 694 699 702 705 707 708 706 699 699 705 697 684 692 693 665 653 662 665 665 665 664 667 667 665 667 668 669 671 671 671 672 672 672 673 672 672 673 674 675 675 675 674 674 674 674 674 675 676 677 678 678 680 680 680 681 681 681 682 683 685 686 687 688 689 690 692 693 695 698 700 702 704 705 708 709
698 699 697 698 701 691 682 689 700 702 700 700 699 697 698 700 697 693 691 693 695 691 692 705 694 659 648 661 666 665 665 664 665 666 664 662 662 666 668 666 667 667 667 669 669 669 670 670 671 672 671 671 671 671 671 671 672 673 673 674 675 677 678 678 678 679 679 680 681 682 683 684 685 686 686 687 689 691 693 695 696 699 700 702 704 706
694 697 698 700 699 687 681 689 697 703 709 703 687 677 682 688 684 682 685 685 684 684 689 689 667 643 649 663 663 661 663 661 659 660 660 657 657 662 663 662 663 663 664 666 665 666 666 666 667 667 667 668 667 667 668 669 670 670 670 672 673 674 676 676 676 677 678 678 680 680 681 682 683 684 685 686 687 689 691 692 693 696 697 699 701 703
691 693 695 696 693 686 685 691 698 704 700 680 660 657 664 670 674 679 678 676 679 679 672 660 644 641 654 659 655 656 656 652 651 652 653 654 655 656 655 656 659 660 662 662 661 662 663 663 664 664 663 664 663 664 666 667 667 668 668 670 671 672 673 674 674 675 676 677 678 678 679 681 681 682 683 684 686 687 688 690 691 693 695 697 699 700
688 691 692 693 692 689 691 698 702 695 677 659 652 654 654 654 663 672 667 662 667 670 665 658 648 645 651 652 648 649 647 645 646 647 649 652 651 649 648 650 655 657 656 656 657 659 660 660 661 661 660 660 660 661 664 664 665 666 666 667 669 669 671 672 672 673 674 674 675 676 677 679 680 681 682 683 685 686 687 688 689 691 693 694 696 697
680 687 688 689 690 690 695 699 689 668 654 655 657 655 653 655 660 667 664 656 656 660 661 656 646 642 648 649 644 641 641 643 643 642 645 647 644 643 644 645 648 649 647 649 652 652 653 655 656 656 656 656 657 658 661 662 662 663 664 665 666 667 669 670 671 671 672 672 673 674 676 677 678 679 681 682 683 684 685 687 688 689 691 692 693 694
670 677 681 684 683 682 686 684 673 662 657 654 649 648 651 652 653 662 662 646 641 648 650 644 639 639 642 642 639 638 642 647 643 635 635 639 638 639 640 639 638 639 640 643 645 644 646 648 649 650 651 652 654 655 657 659 660 661 662 663 664 666 667 668 669 670 670 671 672 673 674 675 676 678 679 681 682 683 684 685 686 688 689 690 692 693
662 666 673 677 674 672 678 677 676 678 669 649 636 638 645 645 644 654 655 635 624 633 640 635 631 631 634 635 635 637 646 651 640 623 622 630 633 634 636 633 631 632 635 637 638 640 642 643 645 647 648 650 651 652 654 656 657 658 660 661 663 664 666 667 667 668 669 670 671 672 673 674 675 676 678 679 680 681 682 684 685 687 688 689 690 691
661 661 664 669 667 667 674 675 671 667 654 636 629 633 643 644 641 654 661 638 614 617 624 623 621 622 625 628 629 636 649 649 630 613 614 623 625 628 630 627 626 627 628 630 633 635 637 639 642 644 646 647 648 649 652 654 654 656 658 659 661 662 663 664 664 665 667 668 670 671 672 673 674 675 676 677 678 680 681 682 684 685 686 688 689 690
664 663 664 666 663 660 665 665 658 650 639 630 628 633 641 640 640 656 659 630 604 605 609 611 616 618 618 621 627 635 640 633 617 609 612 618 620 622 623 622 621 622 623 626 628 630 633 636 639 642 644 644 644 647 650 651 652 654 655 656 659 660 659 660 661 663 665 666 668 670 670 672 672 673 674 675 676 678 679 680 682 683 685 686 687 689
660 659 658 659 656 655 657 656 650 641 632 627 629 634 640 643 646 646 630 605 600 608 609 608 612 613 613 619 625 626 622 614 609 608 613 617 618 618 620 620 620 619 620 622 624 627 631 634 636 638 639 640 642 645 647 648 650 652 653 655 657 655 654 656 659 661 663 665 666 668 669 670 671 671 672 673 674 676 677 678 680 681 682 684 685 686
650 653 652 650 649 648 647 647 646 637 623 620 630 638 639 640 636 621 602 595 600 604 607 609 607 605 610 616 617 615 611 609 610 611 614 617 617 616 618 619 619 619 619 620 622 624 628 631 634 636 636 639 642 642 643 646 647 648 651 653 652 650 651 655 657 659 661 663 664 665 666 668 669 670 671 671 672 674 675 676 678 679 680 682 683 684
629 638 641 639 638 640 642 643 643 631 613 612 629 638 632 618 605 596 595 598 597 595 602 608 604 604 609 611 612 611 609 610 613 613 614 616 616 616 617 617 618 618 618 619 621 623 626 630 632 634 635 638 639 639 641 643 644 646 649 648 646 648 651 653 655 657 659 660 662 663 664 666 667 668 669 669 670 671 673 674 675 677 678 679 681 682
611 616 624 624 623 628 632 629 620 610 604 606 611 613 609 600 593 593 594 592 592 594 598 600 600 604 609 608 609 611 610 610 613 613 613 614 614 615 615 616 617 618 617 617 618 620 624 628 630 632 634 636 636 637 639 640 642 645 646 643 644 647 650 651 653 655 656 658 659 660 662 663 666 667 667 668 668 669 670 672 673 675 676 677 678 680
592 592 599 604 604 605 606 603 599 600 605 604 593 586 591 596 597 598 593 587 589 596 599 597 597 602 608 608 607 608 608 608 609 611 612 612 611 613 614 616 617 618 618 618 619 621 623 625 627 630 632 633 634 636 636 638 640 642 641 640 643 646 647 649 651 653 654 655 656 658 659 661 663 665 665 666 666 667 668 670 671 672 674 675 676 677
579 580 585 590 591 593 595 596 598 601 603 599 590 585 590 594 595 596 595 590 590 596 601 598 595 598 606 609 606 604 604 604 606 609 611 611 611 613 614 615 617 618 619 621 622 622 623 625 627 629 630 631 633 634 635 637 637 637 637 638 641 644 645 647 649 650 651 652 654 656 657 659 661 662 663 664 664 664 666 667 669 670 671 672 674 675
579 580 584 587 588 591 595 595 595 596 598 597 594 591 592 594 595 595 594 591 592 597 600 598 596 599 605 607 603 598 599 603 605 607 610 611 611 611 612 613 615 618 620 622 621 621 623 626 627 628 629 630 631 632 633 634 634 634 635 637 640 642 643 645 646 647 648 650 651 653 655 656 658 660 661 662 662 662 663 664 666 668 668 669 671 672
589 584 584 585 584 584 585 586 586 590 595 596 595 593 592 593 593 592 592 591 592 596 597 598 600 602 602 603 602 597 598 602 603 603 606 611 611 611 612 612 614 616 619 620 620 621 623 625 625 627 628 628 628 629 630 631 631 632 634 636 638 639 641 642 643 643 645 646 648 650 651 653 655 657 658 659 659 660 660 661 663 665 665 666 668 669
605 597 586 582 582 581 581 582 585 591 594 593 592 591 589 588 589 588 589 591 592 593 596 598 601 601 600 600 600 599 600 601 601 601 604 607 609 611 611 611 613 615 616 617 618 620 622 623 624 625 625 625 626 627 627 627 628 630 632 634 635 636 638 639 639 640 642 643 644 646 648 650 652 653 655 656 657 657 658 658 660 661 662 664 665 667
612 608 595 587 584 581 580 579 581 585 585 581 581 583 582 585 588 587 587 590 591 591 593 595 598 600 600 599 599 600 601 601 602 604 604 603 605 607 607 609 612 613 614 615 617 618 620 621 621 622 622 623 623 624 624 625 626 627 629 630 632 633 634 635 636 638 639 640 641 643 644 647 648 650 652 653 654 655 655 656 657 658 659 661 663 664
607 605 599 594 587 578 573 571 571 574 574 571 571 574 575 580 586 587 586 587 588 588 590 593 594 596 598 599 599 600 599 599 601 603 603 603 603 603 605 607 609 610 612 614 615 617 618 618 618 619 619 619 620 621 621 622 623 624 626 627 628 629 630 631 633 634 635 636 638 639 641 643 645 647 648 650 650 652 653 654 655 655 657 659 660 662
Wind_Speed
3 3 3 6 7 9 11 10 7 4 5 6 4 3 3 4 5 4 3 5 1 1 8 8 9 16 22 19 17 20 15 11 14 14 12 11 9 8 9 9 10 10 11 12 17 21 22 24 24 23 23 22 21 22 22 21 21 20 16 13 10 8 7 6 7 9 4 4 2 8 13 24 30 27 47 44 47 49 45 46 48 48 48 47 47 49
3 5 9 9 7 8 9 9 5 3 4 5 4 3 3 4 7 4 3 4 1 0 6 5 8 17 21 18 17 17 14 13 13 10 10 10 8 7 8 10 10 9 9 9 12 16 19 20 19 19 19 19 20 21 22 22 21 19 15 13 10 7 6 6 7 8 9 11 6 6 10 17 28 18 34 43 42 48 47 45 48 48 47 48 48 50
1 7 11 7 5 5 3 6 7 5 3 3 3 2 3 4 4 5 2 2 2 1 5 6 8 17 23 18 16 16 12 11 10 8 9 8 7 8 8 9 9 9 10 9 9 11 14 15 14 15 17 19 20 19 20 20 19 17 15 13 9 6 5 5 7 7 12 14 6 2 8 12 22 25 21 43 40 42 47 44 48 48 46 48 48 49
4 7 9 7 7 6 3 4 8 5 3 3 4 3 4 3 1 4 3 3 3 2 4 7 9 14 18 14 11 11 7 7 8 7 9 8 8 10 8 7 8 9 11 10 10 8 10 11 9 11 16 18 17 18 19 19 17 16 14 13 9 6 5 5 7 7 11 14 9 5 5 8 11 24 12 34 42 40 44 43 46 47 47 48 48 49
7 6 3 8 9 8 6 5 8 6 3 4 4 6 5 4 4 5 4 4 4 2 3 6 8 9 9 7 7 6 3 6 6 5 8 8 8 9 8 8 9 9 10 10 10 9 7 8 8 10 15 15 15 18 21 19 17 14 14 13 10 6 5 5 7 6 7 14 14 9 3 7 7 17 17 12 29 35 39 40 42 45 46 47 46 49
8 5 4 9 7 8 7 5 7 7 5 3 5 9 8 5 5 3 3 5 4 4 3 4 5 7 6 8 10 6 6 8 5 5 9 9 7 7 7 9 9 8 8 8 9 9 7 7 8 9 12 13 15 18 20 18 15 13 13 12 10 7 6 5 7 7 6 14 16 13 11 10 12 10 15 9 9 21 33 36 38 40 42 43 42 44
5 4 5 8 8 9 7 6 7 7 5 2 4 7 7 5 5 2 2 2 1 4 3 3 1 6 8 11 13 6 7 10 8 8 10 9 8 7 7 7 7 7 7 7 7 7 7 7 7 7 10 13 16 18 17 16 14 12 12 12 11 8 6 5 6 8 8 12 16 12 9 10 14 8 5 5 4 8 22 28 34 37 37 39 40 41
5 6 5 7 8 8 7 5 6 9 7 3 2 5 7 7 6 4 3 2 2 4 3 3 3 4 7 10 9 4 7 11 10 10 9 7 8 8 7 7 7 8 7 7 8 7 7 7 7 8 10 11 14 16 16 16 15 13 11 11 11 9 6 6 7 9 9 12 16 13 5 7 15 15 9 5 1 3 11 18 27 34 35 35 39 42
3 8 9 10 7 6 6 4 8 11 5 4 3 7 7 6 5 5 5 2 1 3 4 2 3 3 7 8 6 3 6 10 9 9 8 7 7 7 7 8 8 8 8 7 7 8 7 7 8 10 10 9 11 12 14 16 16 13 11 10 10 9 7 6 7 9 11 12 14 14 9 6 11 16 19 16 11 9 9 11 17 27 33 34 36 41
1 5 7 8 7 6 3 1 8 12 5 3 6 7 6 5 5 4 4 3 2 2 6 5 5 4 6 7 5 1 3 8 8 8 8 7 7 7 7 8 8 7 7 7 7 8 8 9 10 9 9 9 9 10 12 14 15 13 11 10 10 9 7 6 8 9 11 13 13 13 11 9 9 12 18 23 23 21 17 15 17 21 25 27 29 32
2 2 2 3 4 5 4 3 3 7 7 7 7 7 6 5 4 4 2 3 2 4 7 6 6 4 4 7 5 3 5 6 6 4 7 7 7 7 7 7 7 6 6 6 6 7 8 10 10 8 8 9 8 9 11 13 14 13 11 10 9 9 8 7 8 10 11 13 13 13 12 12 12 13 17 21 24 27 27 27 29 29 29 30 30 28
3 1 1 2 2 4 6 5 4 2 6 7 5 5 3 3 4 4 4 3 1 6 6 4 3 3 4 7 4 4 6 5 6 5 6 7 8 8 7 7 7 6 6 6 6 6 6 8 8 7 9 10 7 8 11 13 13 14 12 11 10 10 10 9 9 10 12 13 14 14 14 14 14 15 18 20 23 28 31 31 34 35 35 38 41 41
2 3 3 3 1 5 6 5 4 3 2 4 5 6 3 2 3 2 3 0 3 6 4 2 1 3 7 9 10 12 12 9 8 7 7 7 8 8 7 7 6 5 6 5 5 6 6 6 6 7 9 10 8 8 10 13 14 14 13 12 12 12 12 11 11 12 13 14 15 16 16 16 16 16 18 21 23 26 29 31 33 34 34 36 40 44
2 3 2 2 2 4 8 7 4 2 4 6 6 6 5 3 1 4 3 2 4 4 2 0 1 3 6 7 13 18 18 13 9 8 8 8 8 8 7 6 5 5 5 5 6 5 6 6 6 7 9 10 10 9 10 13 15 15 14 14 14 14 13 13 13 14 15 16 16 17 18 19 18 18 18 20 23 26 28 29 32 35 36 36 38 41
5 5 6 9 4 7 12 9 6 6 7 6 4 5 5 5 5 5 4 3 4 3 2 2 1 4 5 3 7 10 12 9 6 7 7 7 8 7 6 5 5 6 6 5 5 6 7 7 7 8 10 11 12 11 11 13 15 17 17 16 16 15 15 16 15 16 17 18 18 19 20 21 21 20 20 21 22 26 30 32 34 36 36 36 37 38
7 6 5 4 1 10 13 6 5 7 5 3 2 4 3 4 5 2 3 4 3 2 3 3 4 5 5 8 11 9 9 8 7 7 6 7 8 5 5 6 5 6 6 5 5 7 8 8 7 9 11 13 13 12 13 14 16 19 19 18 18 17 16 17 18 18 18 19 20 21 22 23 23 22 22 22 23 26 30 33 35 36 37 37 34 33
4 3 3 2 2 6 8 5 5 4 4 3 3 4 4 3 5 3 2 1 4 2 4 3 5 5 3 9 11 7 9 9 8 8 8 8 7 6 6 7 6 6 6 6 6 7 8 7 7 10 13 14 15 15 16 17 17 19 20 20 20 18 17 18 19 20 20 20 21 22 23 24 25 25 25 25 25 26 29 31 33 34 35 37 35 34
5 1 2 1 1 2 2 4 2 1 4 6 4 5 3 2 3 3 1 3 3 3 5 3 6 4 1 5 6 5 6 6 6 7 8 6 6 7 8 7 7 8 7 7 7 7 7 6 7 11 14 17 18 18 18 18 17 18 19 20 21 20 20 19 20 21 21 21 22 22 23 25 26 26 27 27 27 28 28 30 32 32 33 34 35 36
4 2 2 0 2 1 2 3 1 2 2 4 4 3 3 3 2 2 3 2 2 3 5 4 5 4 5 5 3 2 5 6 6 6 6 7 8 8 8 8 8 8 6 7 7 7 7 7 8 12 15 19 20 20 20 18 17 17 18 20 21 22 21 20 19 20 21 21 22 22 22 24 25 26 26 27 27 28 29 31 32 33 33 34 34 35
1 3 3 1 2 0 2 2 6 4 1 2 1 0 1 2 4 3 3 3 3 3 4 3 3 4 7 7 6 8 9 8 6 6 8 10 10 9 8 8 8 7 7 7 7 7 7 8 10 14 17 20 21 21 20 19 18 17 18 19 21 22 22 21 21 21 21 21 21 22 22 22 23 24 26 27 27 27 29 30 32 33 35 35 36 37
1 4 3 1 1 2 2 5 10 11 8 5 4 4 3 2 2 1 1 2 4 3 3 3 5 5 5 5 8 10 9 9 9 9 10 10 10 10 9 8 8 8 8 8 7 7 8 8 10 15 19 20 21 20 19 19 20 19 18 18 19 21 22 23 23 23 23 22 22 23 23 23 24 25 26 27 28 28 29 30 32 33 34 35 37 39
3 3 4 3 3 4 3 4 7 10 9 7 7 7 8 6 4 2 3 1 3 3 4 3 6 7 4 4 7 8 8 9 10 10 9 9 10 9 8 9 9 9 9 9 8 8 8 7 9 13 17 17 17 19 20 21 21 21 20 20 19 19 21 22 24 25 25 24 24 24 24 24 25 26 26 27 28 29 30 30 31 32 33 34 36 37
4 3 3 3 3 4 3 2 3 5 3 3 4 4 4 4 4 5 5 4 2 2 2 3 4 6 4 6 7 8 8 8 8 9 9 9 9 8 9 9 8 8 9 9 7 7 7 7 8 10 11 13 15 17 20 20 21 21 22 21 20 19 20 21 22 24 25 26 26 26 25 25 25 26 27 28 29 30 31 31 31 31 32 34 35 36
3 2 2 0 2 2 3 2 1 1 2 2 4 4 5 7 5 3 3 3 3 4 3 2 5 6 3 4 4 5 6 6 6 8 9 8 7 8 9 9 8 8 8 7 6 6 6 6 6 7 7 10 13 16 18 19 20 21 21 20 20 20 20 20 20 21 22 24 26 27 27 27 27 27 28 28 29 30 31 31 31 31 32 33 34 36
7 6 4 2 1 2 2 2 2 3 5 4 5 7 9 10 5 1 0 3 2 7 9 5 8 6 3 5 3 0 3 5 6 7 8 8 7 8 8 7 7 8 7 7 7 6 6 6 6 6 7 9 12 15 17 18 19 20 20 21 21 21 20 19 19 19 20 21 23 25 27 28 29 29 29 29 29 30 30 30 30 31 32 33 33 34
8 7 8 7 8 9 7 6 6 6 5 3 6 11 13 12 11 6 1 2 7 7 11 10 11 6 2 5 4 1 2 5 6 6 5 6 6 7 7 6 6 6 7 8 7 6 6 6 6 7 7 9 13 15 16 18 19 20 20 21 21 20 20 18 17 17 17 19 20 22 24 26 28 30 31 31 31 31 31 31 31 31 32 33 33 33
4 5 11 14 15 15 11 5 6 11 10 9 12 16 17 16 16 9 3 6 8 3 7 14 13 10 7 3 4 5 5 6 7 6 5 5 5 6 6 6 6 6 7 7 6 5 5 6 7 8 8 10 14 16 16 18 19 20 21 21 21 19 17 16 14 14 14 15 17 19 21 23 25 28 29 30 31 31 31 32 32 32 33 33 33 33
3 5 14 18 20 15 6 4 10 16 16 18 18 18 19 18 17 14 13 12 6 4 12 13 10 16 16 9 8 9 8 9 8 7 7 7 6 6 5 5 6 6 6 5 5 6 7 7 8 8 8 10 13 15 16 17 19 20 21 21 20 17 16 14 13 13 14 14 16 18 20 21 22 23 25 27 28 29 30 31 32 32 32 32 32 33
3 7 13 15 19 17 5 4 10 14 13 15 17 19 20 20 20 21 24 20 11 9 18 9 12 22 20 11 12 13 11 10 8 8 8 7 6 7 6 6 7 7 7 7 8 8 7 8 8 8 8 9 11 13 14 16 18 19 20 20 18 16 15 15 14 14 15 15 17 19 19 19 20 21 23 24 25 27 28 29 30 30 30 30 31 32
3 7 10 9 14 18 11 6 9 11 9 11 15 19 20 22 25 26 27 24 18 20 22 9 11 24 17 11 16 16 13 11 6 6 8 8 8 9 8 8 9 9 9 8 8 8 8 8 8 8 8 8 9 12 13 16 17 18 19 19 18 17 16 15 15 15 15 16 17 17 17 18 19 20 22 23 24 25 26 27 28 28 28 29 29 30
5 6 6 5 6 14 14 10 9 10 10 10 11 14 18 21 24 26 25 21 17 23 24 14 17 24 13 9 11 11 11 11 8 9 10 11 11 10 10 11 11 10 10 9 9 9 9 9 8 8 8 8 10 13 15 16 17 17 17 17 18 17 16 15 15 15 16 17 17 17 16 17 17 19 21 23 24 25 25 26 26 27 27 28 28 29
7 4 1 4 6 12 11 10 10 8 6 7 9 15 19 19 20 21 19 16 17 21 19 12 17 22 11 6 8 10 11 13 12 11 11 13 13 10 11 12 11 10 9 8 9 9 10 10 9 9 9 10 12 14 17 18 17 17 18 18 17 16 15 15 15 15 16 16 16 16 17 17 17 18 20 22 23 24 25 25 25 26 27 27 28 28
8 6 3 5 8 11 9 9 9 6 3 7 14 18 20 20 20 17 14 16 19 18 13 12 19 20 6 6 11 13 13 16 16 13 13 15 14 11 12 13 12 11 10 10 11 11 11 11 9 10 11 12 15 18 20 20 19 18 18 16 15 15 15 15 15 15 15 15 15 16 16 16 17 18 20 21 22 23 24 24 25 26 27 28 28 28
9 10 7 5 6 10 7 7 7 5 8 11 11 13 19 22 21 17 16 18 19 17 16 18 20 17 7 8 14 15 15 17 17 14 13 13 12 13 15 15 13 11 11 12 12 11 11 10 9 10 14 17 19 21 21 20 19 17 15 13 13 14 15 15 15 14 14 14 14 14 14 15 16 18 19 20 21 22 23 24 26 26 27 28 28 28
11 11 7 5 5 5 3 6 5 8 11 11 5 6 15 20 19 19 22 23 21 21 23 24 25 21 14 14 16 16 16 16 14 13 11 10 13 16 16 13 11 11 14 14 12 12 12 11 9 9 14 19 21 19 19 19 18 15 13 13 14 15 15 15 15 14 14 14 14 13 13 14 15 17 18 19 20 21 23 24 25 26 27 28 29 30
12 10 7 5 5 3 2 6 9 6 4 6 5 3 8 11 14 17 21 22 21 21 22 25 28 25 20 19 19 18 16 14 13 11 9 11 15 16 14 12 11 14 16 13 11 13 13 13 14 15 17 20 20 19 19 20 18 16 15 15 15 15 15 15 15 15 14 14 14 13 13 13 15 16 17 18 19 20 22 23 24 26 27 27 28 28
13 11 8 7 7 6 6 9 8 5 7 9 9 6 6 7 11 13 13 17 19 21 21 23 26 25 21 21 21 19 14 11 13 13 11 14 16 14 13 15 15 16 14 12 14 17 18 20 22 22 21 19 19 21 22 20 18 16 16 15 15 15 15 16 16 16 15 15 15 14 14 14 15 17 17 18 19 20 22 23 24 25 25 25 25 25
14 12 10 8 8 7 8 9 6 5 10 14 12 7 7 8 11 13 10 14 14 18 21 23 26 25 22 21 20 16 9 9 14 15 12 13 15 13 14 17 18 15 12 12 14 14 17 21 22 21 21 19 20 23 23 20 18 17 16 16 16 16 16 17 18 17 16 17 17 16 16 15 16 17 18 18 19 20 21 22 24 24 24 25 25 26
16 13 11 10 8 7 8 9 8 8 10 12 9 8 11 11 11 11 4 11 10 17 21 24 26 23 19 20 17 10 6 9 14 14 10 9 11 12 14 17 17 15 13 14 14 15 17 20 19 18 18 18 20 23 22 20 19 18 16 16 16 16 16 18 20 19 19 18 17 17 18 17 17 18 19 20 20 21 22 23 24 24 24 24 24 23
13 10 8 9 9 10 10 9 7 6 7 7 7 8 11 12 12 11 7 10 8 14 16 16 19 19 17 15 11 8 9 13 14 10 4 5 7 9 12 14 14 14 12 12 15 18 19 18 16 14 16 19 22 23 22 21 19 18 17 16 16 17 19 22 22 20 19 18 17 18 18 18 18 19 19 20 21 22 23 23 23 23 22 22 21 19
11 9 9 10 11 13 13 10 6 5 6 7 7 6 9 11 10 11 12 7 5 8 7 9 13 16 14 11 8 8 12 14 13 8 1 5 3 6 8 9 10 10 10 11 15 17 16 17 19 19 20 23 23 22 23 22 20 19 17 15 16 20 24 24 21 19 19 19 18 18 18 19 20 20 20 21 21 22 23 23 22 22 21 20 20 19
9 8 8 10 11 11 11 10 8 6 5 8 8 7 10 10 9 11 8 3 5 7 6 8 12 11 10 10 9 10 12 11 12 10 4 2 5 6 6 6 5 5 6 9 14 16 16 16 17 17 19 20 21 22 24 23 20 18 16 15 19 25 25 21 19 19 19 20 20 19 19 19 20 21 20 20 20 20 21 21 21 22 21 21 20 19
11 9 8 9 9 9 9 10 8 8 8 12 11 6 9 12 8 5 3 1 3 7 7 7 8 8 8 9 9 11 11 8 8 8 7 7 7 6 6 6 6 6 6 7 10 15 16 12 12 15 18 19 20 21 23 23 20 17 15 18 25 25 21 19 20 20 20 21 21 21 20 20 21 22 21 21 21 20 20 21 21 21 21 21 20 19
12 11 7 7 8 8 9 9 8 6 7 15 15 10 14 12 4 2 5 5 1 4 6 6 7 7 7 8 8 9 9 8 7 6 6 6 7 6 5 5 5 7 8 9 11 17 17 12 11 15 17 17 18 20 22 23 20 16 17 23 26 22 18 19 20 20 21 22 22 21 20 20 21 22 22 22 21 21 21 21 21 21 22 22 21 19
12 13 10 9 11 10 9 8 6 3 5 13 16 16 16 14 8 3 4 4 2 2 4 4 6 6 6 7 7 6 6 7 7 6 6 6 6 6 4 4 5 5 5 5 9 15 17 14 12 13 13 15 18 20 22 24 21 18 21 26 25 21 19 20 20 21 23 23 23 22 21 20 21 23 23 23 23 21 20 20 21 21 21 22 21 20
11 15 12 8 8 9 8 4 4 4 8 13 17 14 9 11 12 7 3 2 4 5 5 4 5 5 6 6 6 4 6 7 6 5 5 5 6 5 4 3 4 2 2 3 7 13 15 12 10 10 10 12 17 20 22 25 25 24 25 26 23 21 20 20 21 23 23 23 22 22 21 20 21 22 23 24 24 23 22 21 20 20 21 21 21 20
6 12 11 7 7 8 8 7 9 11 11 12 15 13 6 6 9 9 8 7 6 6 6 5 4 5 6 7 7 6 6 5 5 4 4 4 5 5 5 5 4 3 5 6 8 12 11 8 7 7 8 10 16 20 22 25 28 29 27 23 20 20 20 20 22 23 22 22 22 22 21 21 20 21 22 23 24 24 23 23 22 21 21 21 21 20
2 6 9 10 11 10 9 11 14 14 10 8 11 11 8 8 8 9 10 10 7 6 6 5 4 5 6 6 7 6 5 5 6 5 4 4 6 5 4 5 6 6 7 8 7 9 9 7 7 8 8 11 16 20 23 25 27 29 27 23 20 19 20 21 23 23 23 23 23 22 22 22 21 20 21 22 23 23 23 23 23 23 23 23 23 21
6 4 5 9 11 11 9 8 8 7 8 11 13 11 10 10 10 10 10 8 8 8 6 5 4 5 6 7 6 6 5 5 5 6 6 6 6 5 5 6 6 7 7 8 9 12 11 10 9 10 11 14 17 19 21 24 25 26 25 24 22 21 21 23 23 23 23 23 23 23 23 22 22 21 21 20 22 23 24 25 25 25 24 25 26 26
6 7 5 5 9 10 10 10 9 8 10 14 15 17 16 12 9 9 9 7 8 10 9 7 7 6 6 7 6 7 6 6 6 7 7 6 6 7 7 7 6 6 7 8 10 12 13 14 13 12 14 16 16 15 18 21 22 22 23 24 24 24 24 24 22 22 22 22 23 23 23 22 22 22 21 21 20 21 22 24 26 27 27 26 27 28
6 8 8 8 9 8 11 15 15 11 10 12 13 15 16 11 9 9 10 9 10 10 9 8 8 8 7 7 7 7 8 8 8 8 8 7 8 8 7 7 7 7 8 9 9 8 11 14 13 12 13 16 15 15 17 19 19 19 20 22 24 26 26 25 22 21 21 22 23 24 24 23 22 22 21 21 21 20 19 20 23 27 29 29 27 28
Wind_Direction
119 141 199 207 207 193 196 200 188 151 125 130 135 162 201 229 261 248 250 290 46 261 265 250 261 272 275 279 280 284 290 278 270 271 267 265 265 264 268 271 268 265 265 275 279 276 271 266 265 266 265 261 254 250 244 245 256 264 271 271 269 279 253 242 230 196 166 156 167 324 308 304 291 208 177 180 183 182 184 184 183 183 184 183 183 182
108 189 226 220 200 188 195 199 181 133 106 107 140 202 256 236 256 252 213 282 358 276 268 275 291 280 276 279 278 278 282 275 264 257 258 256 259 265 266 269 272 271 275 284 282 278 274 268 267 266 261 256 246 242 243 242 253 263 268 272 264 265 257 230 230 217 179 159 139 332 313 307 303 261 184 180 181 181 183 185 185 184 184 184 183 183
185 231 239 220 162 145 159 181 186 184 144 116 135 166 266 243 270 290 276 320 342 223 277 303 303 284 282 281 276 271 260 259 257 241 249 257 263 267 263 267 277 286 289 288 280 278 278 274 275 271 259 251 242 237 242 243 251 261 266 271 269 261 263 235 224 214 169 155 139 312 324 323 308 299 214 183 181 181 182 186 186 185 185 185 184 183
198 247 240 197 148 135 122 154 163 163 161 164 151 164 243 231 248 287 296 326 292 230 271 303 300 282 285 289 280 270 249 259 268 253 254 254 251 256 263 271 274 281 284 286 286 278 282 286 282 267 257 248 240 235 239 245 249 259 269 273 280 273 258 239 215 207 184 168 135 117 351 354 315 311 272 177 176 182 183 186 187 186 186 186 186 185
221 253 211 156 160 159 143 151 154 156 209 222 189 198 229 217 209 240 285 319 315 332 309 315 309 282 291 312 294 291 310 295 295 298 280 257 245 254 272 276 263 260 265 274 283 281 281 287 280 263 257 246 237 238 240 246 250 259 276 278 284 278 242 235 210 200 196 173 143 134 144 54 33 325 328 144 160 175 181 184 186 187 187 187 187 185
247 248 124 133 165 165 150 172 178 172 197 253 224 213 215 196 199 235 338 346 354 340 318 6 339 287 307 306 275 286 320 297 302 313 284 271 267 260 262 267 262 261 260 259 267 277 279 277 276 265 255 242 236 242 244 248 254 260 277 279 280 276 239 228 205 190 186 176 162 152 156 113 75 3 337 18 118 166 176 181 184 185 187 188 187 185
235 207 126 140 168 168 170 202 204 170 157 251 243 204 191 147 132 138 31 10 314 272 261 94 115 271 305 295 273 288 314 292 293 290 272 268 269 255 247 250 261 270 269 270 267 271 273 267 270 257 247 240 234 244 247 248 257 260 274 278 274 276 249 220 205 194 181 180 178 159 150 141 114 89 324 332 26 152 171 179 182 183 187 188 186 183
187 177 146 150 161 168 186 211 200 162 145 230 235 136 138 130 136 147 108 137 230 283 286 144 162 259 288 279 273 301 310 299 297 287 275 266 256 247 249 247 251 261 260 273 277 272 270 259 251 243 245 247 240 244 246 246 257 260 266 275 269 270 261 222 201 200 191 188 193 188 177 156 144 143 158 182 266 165 167 176 180 183 187 187 185 184
142 178 180 167 167 183 196 196 172 157 151 227 177 116 123 130 137 131 107 137 307 347 297 215 157 251 269 268 286 310 290 291 286 276 270 266 262 249 253 253 249 260 258 258 265 268 272 260 248 244 245 252 245 240 242 245 255 256 250 262 264 260 258 232 202 201 202 199 204 208 204 177 162 159 154 157 176 184 180 184 181 180 181 182 183 183
66 203 191 165 177 195 189 151 168 168 172 174 128 89 73 84 86 85 103 117 51 325 254 218 178 221 270 272 287 304 250 261 259 264 263 260 270 262 257 259 254 265 269 258 255 257 263 266 267 262 250 252 245 233 235 239 246 248 236 237 253 254 247 237 210 201 207 209 210 212 206 190 181 173 163 162 167 175 191 203 196 184 179 178 178 178
321 289 193 167 196 178 124 73 161 169 150 126 103 71 51 44 51 50 57 85 61 276 256 235 194 189 285 273 245 206 218 219 207 246 267 263 277 272 258 256 252 258 265 261 262 261 268 275 276 271 254 250 243 228 223 225 234 240 231 221 236 249 239 228 217 205 207 214 214 213 212 204 193 184 178 173 169 174 186 193 194 194 193 192 190 187
340 343 212 264 229 134 100 67 32 77 122 115 94 94 83 357 14 23 1 48 159 253 266 269 215 171 242 258 246 244 254 232 193 203 229 243 267 273 266 257 247 247 254 261 268 270 280 282 270 255 248 244 231 217 209 208 220 231 231 220 217 233 236 223 215 210 208 212 217 218 217 213 204 195 192 188 180 177 182 187 189 192 194 193 192 192
271 215 235 308 268 151 125 98 50 20 83 109 107 116 121 320 345 332 303 212 218 252 285 294 183 206 241 256 264 264 262 246 223 212 209 227 252 261 261 257 250 247 246 249 256 263 272 270 261 251 249 246 231 216 204 199 206 219 230 226 215 221 231 227 217 212 210 210 214 218 221 219 212 205 202 199 193 186 186 187 186 187 190 189 188 189
250 280 237 219 269 183 162 157 153 182 179 159 152 146 144 151 204 254 250 256 255 262 305 283 174 254 263 265 256 251 252 246 232 232 230 227 233 238 244 245 248 253 245 239 242 252 258 254 254 254 252 250 241 226 211 201 200 208 223 230 225 219 221 227 223 216 213 212 211 215 220 223 220 212 207 206 205 200 195 192 190 190 191 192 192 192
203 270 206 183 196 179 181 184 155 142 163 176 158 143 153 157 173 215 208 210 246 263 299 283 224 210 207 260 262 246 257 262 245 243 239 231 230 234 256 257 250 253 246 239 241 245 252 251 252 259 258 254 247 236 221 210 204 204 213 226 232 225 215 218 223 221 218 214 213 213 216 221 224 221 215 209 209 208 204 200 197 197 197 198 198 197
202 258 231 197 190 171 179 182 121 117 149 197 119 124 191 192 157 177 199 174 171 282 282 240 235 221 213 281 284 263 261 259 248 251 239 237 235 220 242 244 228 238 240 237 242 245 250 253 255 260 261 258 254 245 231 222 213 208 209 217 229 233 223 216 219 222 223 220 216 215 216 218 221 223 221 216 212 211 210 207 204 203 204 204 204 202
191 280 308 5 18 174 176 160 146 154 165 163 154 173 201 175 126 122 255 28 77 259 260 195 239 283 306 288 286 279 269 251 232 235 225 225 217 188 208 221 213 226 232 229 232 240 248 255 261 258 258 259 256 251 243 234 227 220 215 214 221 231 231 224 220 220 223 224 221 219 217 217 219 220 221 220 219 217 215 215 214 212 211 210 210 209
165 197 300 108 111 227 186 117 98 12 129 140 185 203 149 101 88 106 224 348 50 251 271 216 233 270 287 268 304 348 307 263 222 218 221 222 199 188 206 211 213 222 227 236 239 245 252 255 261 258 255 255 253 251 250 247 241 231 225 221 219 223 228 229 226 222 220 220 222 223 220 218 219 220 222 223 223 221 218 218 219 220 219 217 216 215
158 172 288 180 178 261 18 119 136 347 102 136 185 201 127 148 193 127 166 214 168 236 281 271 247 238 201 227 285 298 260 247 227 206 201 209 202 201 211 210 220 230 235 246 243 243 249 246 248 250 251 252 251 251 252 252 249 238 231 228 224 226 229 230 231 230 227 223 223 225 225 223 221 221 224 225 225 224 221 219 220 222 224 224 221 220
152 212 241 257 219 147 40 192 190 187 173 69 85 265 38 156 180 167 166 170 165 208 266 297 298 235 217 212 200 215 224 214 208 197 198 209 205 203 207 202 213 224 225 231 233 234 238 238 241 241 243 248 249 250 251 251 250 245 239 231 227 228 229 228 230 231 231 231 229 227 226 226 227 226 226 226 228 228 226 224 223 223 225 225 225 225
79 230 208 145 274 194 187 213 192 180 179 176 171 183 199 189 154 189 219 131 135 173 219 277 284 254 234 206 193 210 220 206 198 197 204 213 209 205 204 199 205 212 220 227 226 230 233 235 242 241 242 246 249 251 253 252 251 251 247 240 232 229 226 225 227 227 229 232 232 230 227 225 226 228 227 225 225 228 230 230 227 226 226 225 226 226
199 211 160 149 218 212 216 230 199 193 191 183 191 195 190 181 135 141 245 222 135 180 187 197 268 266 237 197 202 212 218 212 206 202 207 214 211 210 205 203 205 206 216 225 221 225 233 234 240 243 245 248 249 251 252 252 252 251 251 250 245 236 230 227 226 226 229 230 230 231 231 229 226 225 225 223 222 224 227 230 230 228 226 226 226 226
160 98 133 164 215 217 239 273 194 207 203 170 215 210 180 193 153 151 216 219 161 231 185 145 273 273 218 195 211 218 216 214 206 201 209 219 211 206 209 211 214 217 223 228 227 228 232 234 241 249 252 250 248 248 250 251 251 251 252 254 251 247 244 239 233 229 227 226 227 229 231 232 230 226 223 222 221 222 224 227 229 230 228 226 227 227
135 131 165 218 335 325 301 312 53 155 171 201 228 179 170 221 210 160 198 170 166 221 168 132 261 261 251 247 239 225 215 211 213 205 206 217 212 204 210 211 213 226 237 242 242 240 241 250 260 261 257 249 246 246 248 250 251 253 255 255 253 253 255 254 246 236 228 223 223 224 224 226 227 227 226 225 225 226 226 226 226 228 230 230 229 229
180 186 165 152 268 322 331 296 258 203 186 207 221 192 200 218 205 190 180 97 224 213 163 173 249 243 279 312 335 25 199 205 223 217 202 207 208 201 205 209 212 225 243 248 247 248 248 251 254 250 248 246 247 248 250 254 256 257 257 257 255 256 258 259 254 245 236 228 224 220 219 219 220 221 222 225 228 231 232 231 228 227 230 231 231 231
179 180 174 183 206 213 211 218 218 190 170 192 211 202 207 205 196 202 147 158 234 206 164 200 241 242 298 322 332 326 203 210 232 235 218 215 212 199 193 202 219 232 242 240 235 235 239 246 250 248 248 245 246 250 254 258 261 261 261 259 258 259 260 260 257 251 243 236 230 224 221 219 217 218 220 221 225 228 230 231 230 229 230 231 232 233
172 187 197 202 214 216 210 202 141 126 149 200 204 198 202 201 199 195 148 205 218 176 195 222 232 250 258 244 251 248 213 214 227 219 219 229 228 214 204 212 227 233 233 229 227 235 244 255 254 248 246 244 245 248 253 259 263 264 264 263 261 259 258 257 253 247 243 240 237 234 230 226 224 223 223 224 224 226 227 227 227 227 229 231 231 233
158 213 212 216 228 228 206 169 151 145 173 202 197 193 198 197 194 196 214 219 159 129 246 227 204 242 246 206 211 234 219 221 222 208 214 221 221 223 223 229 231 230 235 237 241 245 245 251 254 249 247 245 246 250 254 258 261 262 262 263 262 258 253 250 246 243 246 248 247 247 245 243 240 237 234 231 229 228 226 226 225 225 227 229 229 231
173 222 218 220 236 239 211 152 179 174 183 196 192 192 193 191 193 202 220 221 173 202 244 203 171 231 241 211 214 224 219 221 210 205 219 214 217 234 235 233 229 227 234 239 240 240 238 245 250 247 245 242 243 250 254 256 259 259 257 257 256 253 248 247 247 250 255 256 255 256 257 256 254 251 248 242 236 233 230 228 226 225 226 228 230 231
178 228 228 219 237 244 232 195 194 191 186 193 196 194 188 191 199 207 219 221 207 226 242 218 216 245 241 209 219 225 229 234 211 204 222 215 222 234 235 235 234 229 229 231 240 247 247 248 246 242 247 246 241 244 249 252 252 250 248 248 248 246 245 245 248 254 257 259 261 263 264 263 260 257 253 248 242 238 234 231 228 226 226 228 230 232
194 224 231 199 233 250 237 214 204 199 197 201 199 198 197 198 205 212 219 218 213 233 242 241 256 261 244 195 217 228 235 244 232 220 230 232 231 230 235 240 237 233 234 236 244 255 260 257 248 242 246 244 239 239 241 244 244 241 241 242 242 241 240 242 246 251 255 259 263 267 268 267 264 258 253 249 244 240 236 232 228 225 225 226 228 230
195 215 209 155 220 247 229 203 201 200 207 223 215 208 205 204 210 217 219 212 209 226 237 238 251 257 243 179 215 229 229 238 234 220 227 239 234 220 226 236 234 233 238 243 249 255 259 255 245 236 236 238 237 236 237 237 233 232 234 236 237 236 234 237 242 247 253 258 263 266 267 268 265 259 253 248 243 239 235 230 226 224 223 223 224 226
186 201 200 175 215 243 225 182 175 166 180 237 232 217 208 210 216 218 220 219 214 217 221 222 236 247 232 167 218 232 229 234 235 223 223 237 239 229 228 233 234 234 237 243 246 246 248 247 238 230 228 230 232 234 236 233 226 227 233 233 232 229 227 232 239 244 250 256 261 264 265 265 262 257 251 247 243 238 233 227 224 223 223 223 224 225
186 200 207 188 213 240 223 159 151 179 212 233 234 209 206 215 216 215 224 224 215 216 225 233 243 248 224 202 227 234 230 232 237 231 224 230 240 242 240 235 231 230 235 239 239 238 240 239 233 229 227 228 232 236 236 231 226 229 231 226 223 223 224 228 232 236 245 254 259 261 261 260 256 251 248 244 239 234 228 224 223 223 224 224 223 221
189 201 205 199 218 236 185 145 183 220 221 232 252 194 204 215 211 213 229 228 216 219 229 240 250 249 238 237 243 243 241 241 243 237 222 217 229 238 242 235 220 222 232 232 228 229 232 230 227 227 228 230 231 230 228 224 221 220 218 214 215 217 221 226 227 233 245 252 254 255 253 252 248 245 243 239 233 229 225 224 224 224 225 224 222 221
185 197 202 200 208 209 149 185 215 243 239 238 263 232 206 208 201 211 234 236 224 220 227 237 245 246 243 246 248 248 251 255 257 244 212 210 225 232 238 233 218 222 228 220 214 221 222 220 217 215 219 224 221 217 218 219 213 209 207 208 211 214 217 222 225 233 243 248 250 249 246 244 242 240 238 234 229 226 225 225 225 225 224 223 221 220
186 191 201 204 205 206 213 218 231 291 295 258 245 222 185 183 185 195 231 242 224 217 224 234 242 245 242 243 247 250 256 270 273 256 222 217 228 228 230 233 230 229 225 212 213 219 217 216 215 213 215 216 209 208 214 214 206 201 202 202 206 211 214 218 224 231 237 241 245 245 243 241 239 236 234 230 226 225 224 225 226 226 224 221 219 219
193 194 194 200 206 201 215 232 233 242 251 247 238 202 164 180 180 174 219 249 219 204 218 230 237 240 238 240 244 244 248 265 266 258 237 223 226 225 228 236 238 233 220 211 213 217 217 215 212 214 215 207 202 208 211 206 199 195 197 200 203 207 211 216 223 228 231 235 239 241 241 240 237 236 234 230 227 226 226 226 227 227 225 224 222 220
201 202 198 202 210 197 205 227 222 217 241 245 227 178 167 185 167 141 225 265 206 187 207 221 229 234 233 237 237 218 209 242 253 260 254 219 210 214 223 234 240 235 226 215 207 207 211 210 209 211 206 196 199 206 204 199 195 192 195 201 202 204 211 218 224 227 229 232 234 236 239 239 238 237 235 233 232 232 231 230 229 229 226 223 220 219
200 205 205 207 213 205 208 223 221 226 245 230 201 182 177 171 142 139 224 259 204 189 201 207 221 232 231 231 223 185 198 229 244 259 255 179 193 213 219 229 235 232 227 216 208 208 208 201 192 189 188 193 202 203 197 194 192 192 200 203 199 207 218 224 228 229 230 232 232 234 238 240 239 239 236 234 235 235 235 232 227 224 221 218 220 225
197 203 206 208 214 211 212 222 227 233 233 205 191 178 153 142 148 185 217 230 190 200 200 184 206 227 226 216 200 195 216 229 240 257 85 116 185 235 233 240 244 233 223 210 202 197 190 186 184 183 190 200 203 198 193 191 190 196 203 199 201 218 228 230 231 230 228 228 228 230 235 238 238 239 236 233 232 231 229 226 221 219 218 220 224 227
188 198 206 206 211 213 214 221 229 236 214 178 169 157 148 160 200 212 206 169 158 180 190 194 206 218 216 204 197 210 225 230 238 256 269 208 234 254 249 240 232 217 205 194 187 177 171 179 186 188 198 204 201 197 194 190 192 200 199 197 214 228 233 231 228 225 223 224 224 225 230 234 237 239 237 233 229 226 223 220 220 221 222 221 220 219
179 187 205 203 202 210 216 213 218 233 203 156 140 152 188 197 206 196 189 197 138 150 169 202 216 214 206 204 206 216 228 233 237 253 265 255 250 261 252 220 195 187 171 157 168 172 168 172 185 196 205 205 200 199 195 192 196 199 196 209 226 233 232 228 224 221 219 219 220 221 224 229 234 236 236 233 229 227 225 222 220 219 218 215 211 209
183 186 196 198 195 201 212 209 207 228 195 157 155 193 212 204 183 154 209 236 234 146 166 195 224 218 194 195 210 215 223 237 241 244 254 255 249 245 235 212 200 195 175 160 167 170 168 172 192 206 211 207 202 202 199 198 199 197 205 222 231 230 227 225 220 216 215 216 218 219 221 225 230 233 232 230 227 224 222 220 217 214 212 210 205 201
186 185 189 199 201 202 212 211 195 194 181 175 191 213 211 202 204 200 194 217 256 212 171 182 222 223 194 192 203 202 212 229 231 223 227 237 235 220 202 203 207 191 172 164 166 171 176 184 195 205 211 211 209 208 205 205 202 201 216 229 231 226 223 220 214 211 212 214 215 217 218 221 226 229 228 225 222 220 218 215 212 209 207 206 202 198
186 187 195 201 196 206 220 202 152 185 205 203 214 223 207 201 213 210 183 204 222 206 189 186 194 194 189 191 183 184 215 221 211 214 222 228 226 206 179 211 225 190 182 187 166 173 186 193 198 207 216 219 215 211 211 211 208 212 225 231 228 224 221 216 210 210 211 212 214 215 216 217 221 225 226 222 219 219 219 217 213 209 205 203 202 201
198 192 202 201 182 197 210 188 186 208 211 208 220 229 229 222 220 211 210 218 207 188 193 198 176 158 172 188 185 190 207 199 181 202 225 234 232 211 182 200 215 203 215 211 178 173 181 188 202 217 225 227 221 214 214 216 217 222 229 230 225 222 218 213 211 210 209 211 212 212 213 213 216 220 223 221 218 216 218 219 217 214 209 205 203 203
271 197 199 201 198 204 206 199 206 215 212 210 223 229 229 229 225 219 222 223 219 207 192 179 160 142 156 190 201 186 179 181 179 182 190 217 238 233 204 206 208 207 219 217 190 177 179 189 208 217 224 230 226 219 216 219 224 228 229 226 222 219 214 212 212 211 211 211 211 211 212 212 213 216 219 220 218 215 215 216 216 218 219 216 212 208
311 283 222 201 206 216 216 201 195 203 218 228 231 230 227 219 214 222 226 221 229 238 221 194 194 181 178 197 193 161 166 206 203 183 184 202 218 222 222 222 217 212 214 209 196 192 197 208 214 212 219 230 228 220 218 223 229 231 228 224 222 217 213 213 213 213 213 212 209 210 211 211 213 214 216 218 220 219 219 219 218 220 223 224 222 218
294 292 279 224 213 217 213 204 193 192 217 228 225 225 228 219 208 226 232 217 223 234 225 216 220 217 214 216 195 170 186 217 214 198 196 203 206 208 213 219 224 229 228 220 208 201 208 221 223 217 224 233 230 222 223 229 232 232 229 225 222 217 215 213 211 211 213 211 209 209 208 208 211 213 214 217 219 220 222 224 223 224 226 228 228 226
242 257 260 250 244 230 212 214 214 210 222 234 229 227 227 215 205 228 238 231 231 232 225 224 228 229 229 228 211 197 205 217 214 204 202 213 217 214 212 210 211 222 230 225 214 205 216 229 230 224 231 239 236 228 230 234 234 232 230 227 222 219 217 213 209 209 212 211 210 209 207 206 208 210 212 216 217 217 220 223 226 228 229 230 232 232